Total_Precipitation_Accumulation
1.38 1.39 1.29 1.26 1.28 1.43 1.58 1.71 1.79 2.09 2.22 1.93 1.60 1.47 1.43 1.48 1.36 1.43 1.37 1.32 1.24 1.31 1.57 1.75 1.62 1.45 1.22 1.05 0.93 0.82 0.73 0.65 0.61 0.54 0.55 0.60 0.61 0.60 0.55 0.49 0.44 0.38 0.33
1.54 1.62 1.54 1.50 1.40 1.42 1.57 1.76 1.93 2.33 2.34 2.19 1.77 1.61 1.56 1.51 1.39 1.33 1.39 1.56 1.41 1.27 1.30 1.46 1.62 1.58 1.47 1.27 1.05 0.86 0.73 0.70 0.61 0.48 0.42 0.46 0.49 0.51 0.54 0.55 0.49 0.41 0.34
1.56 1.57 1.42 1.36 1.42 1.57 1.72 1.78 1.99 2.28 1.98 1.95 1.71 1.65 1.51 1.32 1.18 1.15 1.31 1.44 1.33 1.27 1.32 1.37 1.43 1.46 1.49 1.49 1.34 1.13 0.87 0.73 0.62 0.51 0.43 0.42 0.43 0.43 0.43 0.48 0.49 0.43 0.35
1.48 1.59 1.43 1.34 1.68 1.81 1.87 2.01 2.16 2.16 2.05 1.99 1.79 1.57 1.41 1.32 1.07 1.00 1.00 1.05 1.15 1.03 1.18 1.33 1.33 1.32 1.42 1.57 1.66 1.61 1.29 0.97 0.76 0.64 0.52 0.49 0.51 0.47 0.39 0.38 0.42 0.37 0.28
1.54 1.75 1.68 1.75 2.02 2.08 2.05 1.99 2.23 2.22 2.07 2.03 1.86 1.57 1.27 1.14 0.98 0.86 0.78 0.72 0.80 0.87 0.91 1.00 1.13 1.21 1.44 1.75 1.86 1.85 1.69 1.35 0.99 0.80 0.71 0.65 0.66 0.57 0.40 0.33 0.37 0.37 0.29
1.69 1.94 1.80 1.81 2.00 2.08 2.02 1.98 1.95 2.02 1.85 1.85 1.77 1.47 1.14 0.87 0.81 0.70 0.59 0.57 0.58 0.59 0.68 0.81 0.97 0.89 1.14 1.51 1.68 1.85 1.96 1.75 1.35 1.08 0.96 0.89 0.88 0.75 0.46 0.34 0.34 0.35 0.34
1.58 1.84 1.75 1.84 1.89 1.84 1.81 1.88 1.88 1.74 1.48 1.71 1.74 1.32 0.92 0.73 0.69 0.51 0.49 0.48 0.46 0.48 0.59 0.74 0.89 0.88 0.83 0.95 1.21 1.45 1.76 1.82 1.59 1.32 1.19 1.09 1.09 1.02 0.67 0.48 0.43 0.37 0.40
1.63 1.71 1.75 1.74 1.77 1.75 1.64 1.61 1.70 1.55 1.32 1.50 1.58 1.48 0.96 0.73 0.61 0.47 0.53 0.58 0.59 0.63 0.64 0.68 0.80 0.92 0.93 1.06 1.01 0.98 1.24 1.61 1.81 1.74 1.51 1.22 1.09 1.03 0.86 0.76 0.66 0.57 0.56
1.80 1.79 1.72 1.60 1.47 1.43 1.34 1.37 1.48 1.47 1.32 1.33 1.52 1.68 1.30 0.91 0.81 0.64 0.63 0.65 0.73 0.79 0.74 0.76 0.78 0.89 0.98 1.17 1.26 1.16 1.01 1.19 1.59 1.95 1.91 1.51 1.14 0.98 0.95 0.92 0.89 0.79 0.75
1.57 1.42 1.29 1.26 1.22 1.21 1.12 1.07 1.18 1.22 1.15 1.10 1.24 1.40 1.47 1.42 1.29 0.84 0.61 0.58 0.69 0.78 0.84 0.79 0.71 0.78 0.95 1.12 1.28 1.33 1.06 0.95 1.11 1.59 1.87 1.73 1.40 1.09 0.96 0.97 1.16 1.09 0.86
1.20 1.03 0.94 0.94 0.93 0.93 0.88 0.85 0.87 0.89 0.94 0.94 1.08 1.24 1.34 1.39 1.39 1.25 0.87 0.81 0.83 0.77 0.80 0.79 0.81 0.81 0.86 1.05 1.27 1.22 1.20 1.10 1.04 1.09 1.30 1.49 1.53 1.36 1.22 1.34 1.60 1.67 1.42
0.80 0.68 0.65 0.68 0.73 0.79 0.77 0.75 0.77 0.77 0.83 0.94 0.98 1.09 1.22 1.21 1.22 1.29 1.08 0.97 0.92 0.82 0.82 0.86 0.86 0.92 0.91 1.00 1.04 1.22 1.20 0.98 0.90 0.88 0.94 1.07 1.24 1.30 1.32 1.48 1.82 2.07 2.09
0.63 0.56 0.54 0.57 0.64 0.70 0.68 0.64 0.65 0.74 0.87 0.96 0.94 1.01 1.14 1.17 1.20 1.30 1.25 1.14 1.06 1.02 1.05 1.04 0.88 0.79 0.71 0.81 0.89 0.95 0.87 0.75 0.69 0.67 0.68 0.74 0.84 1.01 1.20 1.39 1.67 1.95 2.12
0.59 0.57 0.52 0.53 0.55 0.59 0.59 0.62 0.62 0.69 0.82 0.89 0.86 1.00 1.10 1.17 1.30 1.42 1.44 1.41 1.26 1.15 1.13 1.09 0.94 0.81 0.77 0.80 0.77 0.75 0.69 0.63 0.51 0.49 0.51 0.51 0.56 0.68 0.88 1.06 1.26 1.47 1.62
0.50 0.57 0.56 0.57 0.59 0.63 0.66 0.72 0.77 0.85 0.99 1.06 1.11 1.22 1.25 1.21 1.25 1.34 1.40 1.44 1.47 1.31 1.14 1.08 0.99 0.86 0.86 0.90 0.82 0.74 0.78 0.63 0.46 0.40 0.39 0.39 0.44 0.54 0.59 0.63 0.76 0.93 1.09
0.41 0.49 0.57 0.58 0.60 0.61 0.65 0.76 0.94 1.10 1.20 1.24 1.28 1.35 1.40 1.35 1.35 1.42 1.41 1.47 1.55 1.46 1.24 1.06 1.00 0.92 0.92 0.83 0.82 0.77 0.72 0.62 0.50 0.43 0.37 0.34 0.35 0.39 0.39 0.41 0.48 0.57 0.70
0.37 0.40 0.47 0.51 0.53 0.57 0.61 0.70 0.83 1.02 1.13 1.16 1.19 1.25 1.26 1.25 1.24 1.23 1.30 1.42 1.54 1.53 1.31 1.11 1.15 1.17 1.13 1.01 0.95 0.88 0.75 0.66 0.54 0.46 0.39 0.36 0.33 0.32 0.33 0.35 0.38 0.42 0.49
0.35 0.37 0.37 0.40 0.41 0.46 0.52 0.63 0.75 0.86 0.95 0.98 0.98 0.98 0.96 0.94 0.97 0.98 1.05 1.14 1.23 1.40 1.37 1.25 1.32 1.37 1.35 1.25 1.19 1.11 0.92 0.72 0.60 0.54 0.45 0.42 0.38 0.34 0.32 0.33 0.37 0.43 0.47
0.28 0.29 0.31 0.35 0.42 0.53 0.63 0.69 0.72 0.76 0.78 0.81 0.88 0.92 0.86 0.83 0.84 0.86 0.89 0.88 0.93 1.11 1.23 1.26 1.31 1.42 1.43 1.42 1.29 1.14 1.08 0.95 0.74 0.64 0.56 0.50 0.45 0.41 0.37 0.35 0.36 0.42 0.47
0.22 0.26 0.31 0.37 0.46 0.53 0.62 0.67 0.68 0.67 0.63 0.59 0.63 0.69 0.71 0.69 0.69 0.74 0.78 0.79 0.82 0.95 1.10 1.20 1.29 1.46 1.49 1.43 1.38 1.23 1.21 1.11 0.99 0.84 0.72 0.60 0.58 0.54 0.48 0.42 0.37 0.38 0.46
0.22 0.27 0.32 0.39 0.43 0.44 0.46 0.43 0.42 0.42 0.40 0.38 0.37 0.40 0.47 0.52 0.55 0.57 0.60 0.73 0.80 0.86 0.94 1.02 1.09 1.29 1.52 1.56 1.37 1.27 1.33 1.33 1.20 1.03 0.91 0.73 0.62 0.56 0.52 0.47 0.44 0.39 0.41
0.23 0.28 0.33 0.38 0.39 0.34 0.37 0.28 0.20 0.20 0.25 0.29 0.33 0.35 0.36 0.39 0.43 0.44 0.45 0.52 0.66 0.75 0.80 0.87 0.95 1.11 1.33 1.49 1.53 1.50 1.44 1.35 1.33 1.22 1.10 1.03 0.87 0.76 0.67 0.57 0.46 0.42 0.39
0.24 0.27 0.28 0.28 0.30 0.34 0.31 0.24 0.15 0.15 0.19 0.22 0.27 0.31 0.28 0.28 0.33 0.35 0.36 0.36 0.39 0.47 0.59 0.72 0.81 0.88 1.03 1.23 1.40 1.40 1.46 1.48 1.50 1.51 1.46 1.46 1.24 1.04 0.88 0.74 0.58 0.45 0.40
0.31 0.30 0.28 0.27 0.32 0.33 0.27 0.22 0.17 0.16 0.21 0.24 0.27 0.29 0.29 0.26 0.26 0.31 0.36 0.36 0.33 0.32 0.35 0.45 0.57 0.75 0.93 1.13 1.37 1.38 1.38 1.47 1.58 1.65 1.63 1.67 1.52 1.34 1.15 0.98 0.79 0.59 0.47
0.37 0.34 0.32 0.34 0.37 0.39 0.31 0.22 0.18 0.20 0.27 0.29 0.30 0.29 0.28 0.27 0.24 0.20 0.28 0.35 0.37 0.36 0.33 0.34 0.41 0.61 0.85 0.98 1.20 1.33 1.30 1.29 1.24 1.23 1.30 1.45 1.53 1.49 1.39 1.18 0.96 0.77 0.60
0.44 0.38 0.35 0.38 0.42 0.48 0.43 0.28 0.23 0.26 0.34 0.37 0.42 0.37 0.29 0.24 0.23 0.20 0.25 0.31 0.34 0.35 0.38 0.37 0.37 0.45 0.59 0.78 0.92 1.06 1.15 1.15 1.06 0.98 0.84 0.89 1.11 1.29 1.47 1.39 1.17 0.97 0.81